STARLINK-3708, 52111

Orbit data source: Space-Track

STARLINK-3708, 52111 is a payload satellite owned by SpaceX/Seattle (US) in LEO that was launched on Sat, 19 Mar 2022 UTC via an FALCON 9 launch vehicle from the Air Force Eastern Test Range (AFETR). Payload-class satellites include a variety of spacecraft equipped with specific instruments for various scientific and technological missions. These include communications satellites like Starlink; space stations such as the ISS; scientific satellites like the Hubble; Earth observation satellites from companies like Planet Labs, Umbra, and HawkEye 360; GPS; miniature CubeSats for education and research; and military/defense satellites.

Loading next visibility...
Identifier
52111, 2022-029Z
Orbit
LEO
Country
Flag of USUS
Related business
Manufacturer
SpaceX/Seattle
Mission
Operational Commercial Communications
Bus & Motor
STARLINK, Unknown motor
Mass
297 kg wet, ~275 kg dry
Launch date (UTC)
2022-03-19 (4 years ago)
Launch vehicle
FALCON 9
Launch site
Air Force Eastern Test Range (AFETR)
Object type
Payload
Rocket body
Debris
Shape & HBR
Box + 1 Pan, 10.1 m
Radar Cross Section
13.562 m², Large (>1 m²)

Expand to show TLE details & history
Last TLE update: 2 days ago

TLE from 2 days ago
0 STARLINK-3708
1 52111U 22029Z   26171.15481893  .00017269  00000-0  10965-2 0  9999
2 52111  53.1604 339.0163 0000700  99.7993 260.3077 15.08969144236259
Epoch: 2026-06-20T03:42Z
TLE epoch observation values (Epoch: 2026-06-20T03:42:56.355Z)
Latitude
-0.00007°
Longitude
14.90793°
Altitude
540.322 km
Speed
7.593 km/s
True Right ascension
22h 36m 03s
True Declination
0° 00' 00"
Sunlit
Object was in daylight at epoch
Visualization orbit readout
Latitude
Unknown
Longitude
Unknown
Altitude
Unknown
Speed
Unknown
Apparent Right ascension
Unknown
Apparent Declination
Unknown
Sunlit
N/A
Visualization observer readout
Local Sidereal Time
21:26:26
Azimuth
Unknown
Elevation
Unknown
Doppler factor
Unknown
Orbital elements
Apogee altitude
540.087 km
Perigee altitude
539.119 km
Semi-major axis
6,917.74 km
Eccentricity
0.00007
Inclination
53.1604°
RAAN
339.0163°
Arg. of periapsis
99.7993°
True anomaly
260.29979°
Mean anomaly
260.3077°
Eccentric anomaly
260.30375°
Mean motion
3.77222 °/min
Orbital period
95.43 mins
BSTAR
0.0010965
Loading maneuver chart data...
Computing Atmospheric mass density...
Loading historical data...
Loading historical data...
Loading historical data...
Loading historical data...
Loading historical data...
Loading historical data...
Loading historical data...

Documentation

Showing up to 5 results
|